Regional Weather Roundup
Issued by NWS

Home | Current Version | Previous Version | Graphics & Text | Print | Product List | Glossary On
Versions: 1 2 3 4 5 6 7 8 9 10 11 12 13 14 15 16 17 18 19 20 21 22 23 24 25 26 27 28 29 30 31 32 33 34 35 36 37 38 39 40 41 42 43 44 45 46 47 48 49 50
000
ASUS43 KFSD 241102
RWRSD

WEATHER ROUNDUP FOR SOUTH DAKOTA
NATIONAL WEATHER SERVICE SIOUX FALLS SD
600 AM CDT WED MAY 24 2017

NOTE: "FAIR" INDICATES FEW OR NO CLOUDS BELOW 12,000 FEET WITH NO
SIGNIFICANT WEATHER AND/OR OBSTRUCTIONS TO VISIBILITY.


SDZ001>005-009-010-012>017-241200-
NORTHWEST AND NORTH CENTRAL SOUTH DAKOTA

CITY           SKY/WX    TMP DP  RH WIND       PRES   REMARKS
BUFFALO          N/A     43  36  76 SE16      29.69F
FAITH            N/A     36  35  96 S14       29.81F
MOBRIDGE       CLOUDY    34  32  92 CALM      29.82F FOG
$$

SDZ012>016-024>037-041>051-057-063-072>074-241200-
SOUTHWEST AND SOUTH CENTRAL SOUTH DAKOTA

CITY           SKY/WX    TMP DP  RH WIND       PRES   REMARKS
RAPID CTY ARPT CLEAR     37  33  85 SE6       29.81F
PIERRE         CLEAR     36  33  89 SW6       29.84F
CUSTER         CLOUDY    32  27  81 W3        29.83F
ELLSWORTH AFB  CLEAR     41  36  82 S9        29.79F
PHILIP         CLOUDY    30  29  96 CALM      29.84F
PINE RIDGE     CLEAR     38  35  89 S6        29.85F
SPEARFISH      FAIR      37  34  87 S6        29.76F
WINNER         FAIR      38  36  92 SW6       29.86F
$$

SDZ004>011-016>023-039-040-241200-
NORTHEAST SOUTH DAKOTA

CITY           SKY/WX    TMP DP  RH WIND       PRES   REMARKS
ABERDEEN       FOG       38  35  89 NE3       29.84F VSB 1/2
WATERTOWN      MOCLDY    41  40  96 N5        29.82F
BROOKINGS      CLOUDY    42  41  96 CALM      29.82F
SISSETON         N/A     45  44  97 N3        29.83F
$$

SDZ017-020-022-023-036>040-048>070-241200-
SOUTHEAST SOUTH DAKOTA

CITY           SKY/WX    TMP DP  RH WIND       PRES   REMARKS
SIOUX FALLS    MOCLDY    45  45 100 N8        29.82S
HURON          PTCLDY    33  33 100 NW3       29.85F FOG
CHAMBERLAIN    CLEAR     38  38 100 CALM      29.85F
MITCHELL       CLEAR     39  38  96 NW6       29.85S
YANKTON        CLEAR     42  40  92 NW7       29.83S
$$

ABBREVIATIONS USED IN REMARKS
   TC - TEMPERATURE IN CELSIUS
  WCI - WIND CHILL INDEX
   HX - HEAT INDEX
  VSB - VISIBILITY





USA.gov is the U.S. government's official web portal to all federal, state and local government web resources and services.